Weather History for CXRB - October, 2013

Change the Weather History Date:

Sunday, October 13, 2013

  Actual Average Record
Temperature  
Mean Temperature 21 °F -  
Max Temperature 23 °F - - ()
Min Temperature 17 °F - - ()
Degree Days  
Heating Degree Days 44    
Moisture  
Dew Point 18 °F    
Average Humidity 85    
Maximum Humidity 93    
Minimum Humidity 78    
Precipitation  
Precipitation 0.03 in - - ()
Sea Level Pressure  
Sea Level Pressure 29.98 in    
Wind  
Wind Speed 14 mph ()    
Max Wind Speed 20 mph    
Max Gust Speed -    
T = Trace of Precipitation, MM = Missing Value Source: Averaged Metar Reports

Daily Weather History Graph

Daily Weather History Graph

Search for Another Location

Airport or City:

Trip Planner

Search our weather history database for the weather conditions in past years. The results will help you decide how hot, cold, wet, or windy it might be!

Date:

Astronomy

Oct. 13, 2013 Rise Set
Actual Time 7:54 AM MDT 4:15 PM MDT
Civil Twilight 6:31 AM MDT 5:38 PM MDT
Nautical Twilight 4:59 AM MDT 7:09 PM MDT
Astronomical Twilight 3:16 AM MDT 8:50 PM MDT
Moon 5:00 PM MDT (10/13) 11:38 PM MDT (10/13)
Length of Visible Light 11h 06m
Length of Day
8h 20m
Waxing Gibbous, 70% of the Moon is Illuminated
Oct 13
Waxing Gibbous
Oct 18
Full
Oct 26
Last Quarter
Nov 3
New
Nov 9
First Quarter

Hourly Weather History & Observations

Time (MDT) Temp. Windchill Dew Point Humidity Pressure Visibility Wind Dir Wind Speed Gust Speed Precip Events Conditions
12:00 AM 22 °F - 20 °F 87% 29.88 in - NE 17.3 mph - -  
12:00 AM 21.6 °F 7.3 °F 19.8 °F 93% 29.88 in - NE 17.3 mph - N/A   Unknown
1:00 AM 20.8 °F 6.8 °F 18.7 °F 91% 29.89 in - ENE 16.1 mph - N/A   Unknown
2:00 AM 21.7 °F 8.0 °F 19.2 °F 90% 29.90 in - NE 16.1 mph - N/A   Unknown
3:00 AM 21.0 °F 6.2 °F 18.0 °F 88% 29.92 in - NE 18.4 mph - 0.03 in   Unknown
4:00 AM 21.4 °F 7.5 °F 18.1 °F 87% 29.93 in - NE 16.1 mph - N/A   Unknown
5:00 AM 21.6 °F 7.8 °F 18.3 °F 87% 29.94 in - ENE 16.1 mph - N/A   Unknown
6:00 AM 23 °F - 19 °F 78% 29.95 in - ENE 15.0 mph - -  
6:00 AM 22.6 °F 9.6 °F 19.0 °F 86% 29.95 in - ENE 15.0 mph - N/A   Unknown
7:00 AM 22.3 °F 10.2 °F 18.7 °F 86% 29.96 in - ENE 12.7 mph - N/A   Unknown
8:00 AM 21.9 °F 9.2 °F 18.3 °F 86% 29.96 in - ENE 13.8 mph - N/A   Unknown
9:00 AM 22.5 °F 10.5 °F 18.5 °F 85% 29.97 in - ENE 12.7 mph - N/A   Unknown
10:00 AM 23.7 °F 12.6 °F 18.5 °F 80% 29.98 in - East 11.5 mph - N/A   Unknown
11:00 AM 21.7 °F 8.0 °F 17.8 °F 85% 29.99 in - ENE 16.1 mph - N/A   Unknown
12:00 PM 21 °F - 18 °F 81% 30.00 in - ENE 19.6 mph - -  
12:00 PM 21.0 °F 5.7 °F 17.6 °F 87% 30.00 in - ENE 19.6 mph - N/A   Unknown
1:00 PM 21.2 °F 7.3 °F 17.8 °F 87% 30.01 in - NE 16.1 mph - N/A   Unknown
2:00 PM 21.4 °F 8.5 °F 17.6 °F 85% 30.02 in - NE 13.8 mph - N/A   Unknown
3:00 PM 20.7 °F 6.6 °F 17.2 °F 87% 30.03 in - NE 16.1 mph - N/A   Unknown
4:00 PM 20.5 °F 5.9 °F 16.9 °F 86% 30.04 in - NE 17.3 mph - N/A   Unknown
5:00 PM 20.3 °F 6.1 °F 16.5 °F 85% 30.04 in - NE 16.1 mph - N/A   Unknown
6:00 PM 19.4 °F 7.9 °F 15.6 °F 85% 30.05 in - ENE 10.4 mph - N/A   Unknown
7:00 PM 20.3 °F 10.6 °F 16.0 °F 83% 30.05 in - ENE 8.1 mph - N/A   Unknown
8:00 PM 19.8 °F 9.1 °F 15.1 °F 82% 30.05 in - ENE 9.2 mph - N/A   Unknown
9:00 PM 19.4 °F 8.6 °F 14.5 °F 81% 30.06 in - ENE 9.2 mph - N/A   Unknown
10:00 PM 19.6 °F 8.9 °F 15.1 °F 83% 30.07 in - ENE 9.2 mph - N/A   Unknown
11:00 PM 17.6 °F 3.2 °F 13.3 °F 83% 30.07 in - NE 15.0 mph - N/A   Unknown